QPF
0.02 0.02 0.03 0.03 0.02 0.02 0.03 0.04 0.04 0.05 0.05 0.04 0.03 0.03 0.04 0.04 0.03 0.04 0.05 0.04 0.04 0.05 0.05 0.05 0.05 0.05 0.06 0.04 0.04 0.04 0.03 0.03 0.03 0.03 0.02 0.02 0.02 0.03 0.03 0.02 0.01 0.01 0.01
0.03 0.03 0.03 0.04 0.03 0.03 0.02 0.03 0.04 0.06 0.07 0.06 0.04 0.03 0.04 0.03 0.03 0.06 0.07 0.06 0.04 0.04 0.05 0.05 0.06 0.06 0.05 0.05 0.04 0.03 0.03 0.04 0.04 0.03 0.03 0.02 0.01 0.02 0.02 0.01 0.01 0.02 0.01
0.03 0.03 0.05 0.05 0.04 0.05 0.05 0.05 0.05 0.05 0.06 0.06 0.06 0.07 0.06 0.06 0.04 0.05 0.07 0.08 0.05 0.04 0.04 0.05 0.06 0.06 0.05 0.06 0.05 0.05 0.05 0.05 0.04 0.03 0.02 0.02 0.02 0.01 0.02 0.02 0.01 0.01 0.01
0.03 0.03 0.05 0.05 0.05 0.04 0.05 0.07 0.06 0.06 0.08 0.08 0.10 0.10 0.08 0.08 0.06 0.06 0.06 0.09 0.08 0.05 0.05 0.05 0.05 0.05 0.06 0.07 0.07 0.08 0.08 0.06 0.04 0.03 0.02 0.02 0.02 0.01 0.01 0.02 0.02 0.02 0.01
0.03 0.03 0.05 0.06 0.05 0.06 0.06 0.04 0.05 0.07 0.10 0.10 0.08 0.09 0.08 0.09 0.08 0.06 0.07 0.07 0.08 0.06 0.07 0.06 0.04 0.05 0.06 0.09 0.09 0.10 0.09 0.08 0.06 0.04 0.03 0.02 0.02 0.02 0.01 0.01 0.02 0.02 0.02
0.05 0.05 0.05 0.04 0.04 0.09 0.09 0.08 0.09 0.08 0.09 0.11 0.08 0.08 0.08 0.08 0.09 0.08 0.06 0.06 0.07 0.05 0.05 0.06 0.06 0.05 0.04 0.06 0.07 0.09 0.10 0.09 0.07 0.05 0.03 0.03 0.04 0.03 0.02 0.01 0.01 0.02 0.02
0.07 0.08 0.05 0.05 0.06 0.09 0.09 0.08 0.09 0.08 0.08 0.09 0.12 0.13 0.10 0.07 0.06 0.06 0.07 0.07 0.06 0.06 0.06 0.06 0.08 0.09 0.07 0.05 0.04 0.06 0.09 0.11 0.09 0.06 0.05 0.05 0.05 0.04 0.03 0.02 0.01 0.01 0.01
0.09 0.08 0.08 0.06 0.07 0.10 0.11 0.10 0.11 0.10 0.08 0.08 0.12 0.16 0.12 0.11 0.08 0.04 0.06 0.07 0.06 0.08 0.09 0.06 0.08 0.09 0.09 0.10 0.05 0.02 0.05 0.07 0.07 0.07 0.06 0.05 0.05 0.04 0.03 0.02 0.02 0.02 0.02
0.09 0.10 0.09 0.07 0.08 0.07 0.10 0.11 0.12 0.12 0.12 0.09 0.08 0.11 0.10 0.09 0.08 0.05 0.04 0.03 0.03 0.05 0.06 0.06 0.05 0.07 0.06 0.07 0.05 0.02 0.02 0.03 0.04 0.06 0.06 0.06 0.05 0.04 0.03 0.03 0.03 0.02 0.02
0.10 0.10 0.09 0.10 0.11 0.08 0.09 0.08 0.09 0.11 0.11 0.10 0.08 0.07 0.07 0.06 0.07 0.06 0.04 0.02 0.03 0.03 0.04 0.04 0.05 0.06 0.04 0.03 0.04 0.02 0.01 0.01 0.03 0.04 0.05 0.05 0.04 0.04 0.03 0.03 0.04 0.04 0.05
0.10 0.10 0.10 0.10 0.08 0.07 0.08 0.09 0.11 0.10 0.09 0.09 0.09 0.08 0.07 0.07 0.05 0.08 0.07 0.05 0.04 0.03 0.03 0.04 0.05 0.04 0.03 0.05 0.06 0.03 0.01 0.01 0.02 0.02 0.03 0.04 0.04 0.04 0.04 0.04 0.06 0.07 0.06
0.11 0.09 0.09 0.08 0.07 0.06 0.08 0.10 0.11 0.12 0.10 0.10 0.09 0.08 0.07 0.07 0.07 0.08 0.07 0.06 0.06 0.04 0.02 0.03 0.03 0.03 0.04 0.05 0.04 0.02 0.01 0.03 0.03 0.03 0.03 0.03 0.04 0.05 0.05 0.05 0.06 0.06 0.07
0.08 0.08 0.07 0.08 0.07 0.07 0.09 0.10 0.11 0.08 0.08 0.10 0.08 0.06 0.06 0.05 0.05 0.05 0.08 0.06 0.06 0.03 0.03 0.03 0.02 0.02 0.03 0.04 0.06 0.03 0.03 0.05 0.04 0.03 0.03 0.03 0.02 0.03 0.03 0.03 0.04 0.05 0.05
0.06 0.07 0.07 0.07 0.06 0.06 0.06 0.08 0.08 0.07 0.07 0.09 0.07 0.09 0.07 0.04 0.04 0.04 0.07 0.08 0.08 0.06 0.05 0.04 0.03 0.02 0.03 0.04 0.05 0.05 0.06 0.05 0.04 0.03 0.02 0.02 0.03 0.03 0.03 0.03 0.03 0.03 0.03
0.07 0.06 0.06 0.06 0.06 0.06 0.06 0.08 0.07 0.07 0.07 0.07 0.06 0.08 0.06 0.05 0.04 0.03 0.04 0.06 0.10 0.11 0.09 0.05 0.04 0.03 0.03 0.04 0.04 0.04 0.05 0.05 0.04 0.04 0.03 0.03 0.03 0.03 0.03 0.02 0.02 0.02 0.02
0.09 0.06 0.05 0.05 0.06 0.05 0.08 0.08 0.07 0.08 0.08 0.07 0.07 0.08 0.07 0.05 0.05 0.03 0.03 0.04 0.07 0.10 0.10 0.04 0.03 0.02 0.03 0.03 0.04 0.04 0.05 0.05 0.04 0.04 0.03 0.02 0.02 0.02 0.02 0.02 0.02 0.02 0.02
0.07 0.06 0.05 0.04 0.05 0.05 0.06 0.07 0.06 0.08 0.08 0.06 0.05 0.05 0.06 0.05 0.05 0.05 0.04 0.04 0.05 0.08 0.09 0.05 0.03 0.02 0.03 0.04 0.04 0.05 0.04 0.03 0.03 0.04 0.03 0.02 0.02 0.02 0.02 0.03 0.03 0.03 0.02
0.06 0.06 0.05 0.05 0.05 0.04 0.05 0.05 0.05 0.05 0.06 0.07 0.08 0.08 0.08 0.06 0.06 0.05 0.05 0.06 0.06 0.08 0.09 0.08 0.05 0.04 0.04 0.05 0.05 0.04 0.03 0.03 0.03 0.04 0.04 0.04 0.03 0.03 0.04 0.04 0.05 0.05 0.04
0.05 0.06 0.07 0.06 0.05 0.05 0.04 0.04 0.05 0.05 0.06 0.08 0.10 0.10 0.09 0.08 0.07 0.06 0.05 0.06 0.05 0.05 0.06 0.07 0.06 0.06 0.06 0.06 0.06 0.06 0.06 0.06 0.05 0.05 0.05 0.04 0.04 0.03 0.03 0.03 0.03 0.03 0.03
0.07 0.07 0.07 0.07 0.06 0.05 0.04 0.05 0.07 0.08 0.08 0.09 0.10 0.10 0.10 0.09 0.09 0.09 0.08 0.07 0.06 0.05 0.06 0.07 0.07 0.09 0.10 0.09 0.08 0.07 0.07 0.06 0.06 0.04 0.04 0.03 0.03 0.02 0.03 0.03 0.03 0.03 0.02
0.06 0.07 0.06 0.06 0.05 0.04 0.04 0.05 0.07 0.08 0.08 0.09 0.07 0.07 0.08 0.09 0.10 0.10 0.09 0.09 0.08 0.08 0.08 0.08 0.09 0.09 0.09 0.08 0.07 0.06 0.06 0.06 0.06 0.05 0.04 0.04 0.04 0.05 0.05 0.04 0.03 0.02 0.01
0.05 0.05 0.04 0.04 0.03 0.02 0.03 0.04 0.05 0.06 0.07 0.06 0.07 0.09 0.11 0.12 0.13 0.15 0.17 0.16 0.14 0.12 0.13 0.13 0.11 0.10 0.09 0.08 0.07 0.08 0.08 0.08 0.08 0.08 0.07 0.07 0.07 0.07 0.06 0.04 0.03 0.02 0.02
0.06 0.07 0.07 0.05 0.04 0.04 0.04 0.05 0.05 0.05 0.05 0.07 0.08 0.11 0.14 0.17 0.17 0.15 0.16 0.17 0.16 0.13 0.10 0.08 0.08 0.07 0.07 0.07 0.08 0.09 0.10 0.09 0.08 0.07 0.07 0.07 0.06 0.06 0.05 0.04 0.05 0.04 0.04
0.03 0.04 0.06 0.07 0.06 0.06 0.07 0.05 0.05 0.04 0.06 0.07 0.08 0.08 0.09 0.10 0.10 0.10 0.09 0.08 0.08 0.08 0.07 0.06 0.05 0.04 0.04 0.05 0.05 0.06 0.07 0.07 0.07 0.07 0.07 0.07 0.06 0.06 0.07 0.07 0.07 0.06 0.05
0.02 0.02 0.02 0.02 0.03 0.04 0.05 0.06 0.05 0.04 0.05 0.05 0.05 0.05 0.05 0.04 0.06 0.06 0.05 0.04 0.04 0.04 0.05 0.05 0.04 0.03 0.03 0.03 0.03 0.04 0.04 0.05 0.05 0.05 0.05 0.06 0.07 0.07 0.07 0.06 0.04 0.05 0.05
0.02 0.03 0.03 0.02 0.02 0.02 0.04 0.07 0.07 0.04 0.05 0.05 0.05 0.05 0.05 0.04 0.04 0.03 0.02 0.03 0.03 0.03 0.03 0.03 0.02 0.02 0.02 0.02 0.03 0.02 0.03 0.03 0.03 0.03 0.03 0.03 0.04 0.03 0.03 0.02 0.02 0.02 0.02
MSLP
1018.73 1019.03 1019.27 1019.45 1019.59 1019.71 1019.83 1019.96 1020.09 1020.21 1020.30 1020.36 1020.38 1020.38 1020.40 1020.48 1020.65 1020.93 1021.31 1021.75 1022.21 1022.66 1023.03 1023.32 1023.50 1023.61 1023.68 1023.74 1023.83 1023.96 1024.14 1024.34 1024.56 1024.75 1024.91 1025.02 1025.10 1025.16 1025.21 1025.28 1025.36 1025.45 1025.54
1018.83 1019.12 1019.36 1019.53 1019.65 1019.75 1019.85 1019.97 1020.09 1020.21 1020.32 1020.40 1020.45 1020.49 1020.54 1020.62 1020.77 1021.00 1021.32 1021.70 1022.11 1022.51 1022.87 1023.17 1023.39 1023.56 1023.68 1023.80 1023.93 1024.09 1024.27 1024.48 1024.67 1024.85 1025.00 1025.10 1025.18 1025.23 1025.28 1025.34 1025.41 1025.49 1025.56
1018.89 1019.18 1019.40 1019.57 1019.69 1019.79 1019.89 1020.00 1020.13 1020.26 1020.39 1020.49 1020.57 1020.63 1020.67 1020.74 1020.85 1021.03 1021.27 1021.58 1021.92 1022.28 1022.62 1022.93 1023.20 1023.42 1023.61 1023.80 1023.98 1024.17 1024.37 1024.56 1024.75 1024.91 1025.03 1025.12 1025.19 1025.23 1025.27 1025.32 1025.38 1025.44 1025.49
1018.89 1019.17 1019.39 1019.57 1019.70 1019.82 1019.93 1020.06 1020.20 1020.35 1020.49 1020.61 1020.71 1020.77 1020.80 1020.84 1020.90 1021.01 1021.17 1021.40 1021.67 1021.98 1022.30 1022.62 1022.92 1023.20 1023.46 1023.71 1023.94 1024.16 1024.37 1024.57 1024.74 1024.88 1024.98 1025.05 1025.10 1025.14 1025.17 1025.20 1025.25 1025.29 1025.33
1018.84 1019.09 1019.32 1019.51 1019.67 1019.82 1019.96 1020.11 1020.28 1020.45 1020.60 1020.74 1020.83 1020.89 1020.91 1020.91 1020.92 1020.96 1021.05 1021.19 1021.40 1021.65 1021.95 1022.26 1022.59 1022.91 1023.22 1023.51 1023.78 1024.03 1024.25 1024.44 1024.60 1024.72 1024.81 1024.87 1024.92 1024.95 1024.97 1025.00 1025.03 1025.06 1025.09
1018.73 1018.97 1019.20 1019.41 1019.60 1019.78 1019.96 1020.15 1020.33 1020.52 1020.69 1020.83 1020.92 1020.97 1020.97 1020.95 1020.91 1020.89 1020.91 1020.98 1021.12 1021.32 1021.58 1021.88 1022.20 1022.54 1022.88 1023.20 1023.49 1023.76 1023.98 1024.17 1024.32 1024.44 1024.52 1024.58 1024.63 1024.67 1024.70 1024.73 1024.75 1024.78 1024.79
1018.61 1018.82 1019.04 1019.26 1019.48 1019.70 1019.92 1020.14 1020.35 1020.55 1020.73 1020.87 1020.96 1021.00 1020.99 1020.94 1020.87 1020.81 1020.77 1020.79 1020.87 1021.01 1021.22 1021.49 1021.80 1022.12 1022.46 1022.78 1023.08 1023.35 1023.57 1023.76 1023.91 1024.03 1024.13 1024.20 1024.27 1024.33 1024.38 1024.43 1024.46 1024.49 1024.50
1018.49 1018.66 1018.87 1019.10 1019.33 1019.58 1019.83 1020.07 1020.30 1020.51 1020.69 1020.83 1020.92 1020.95 1020.94 1020.88 1020.80 1020.71 1020.65 1020.62 1020.65 1020.74 1020.90 1021.12 1021.39 1021.69 1022.00 1022.31 1022.59 1022.84 1023.07 1023.26 1023.42 1023.55 1023.68 1023.79 1023.89 1023.99 1024.08 1024.16 1024.21 1024.25 1024.27
1018.38 1018.52 1018.70 1018.92 1019.16 1019.42 1019.69 1019.94 1020.18 1020.40 1020.57 1020.71 1020.80 1020.83 1020.82 1020.77 1020.69 1020.61 1020.53 1020.49 1020.48 1020.54 1020.65 1020.82 1021.04 1021.29 1021.56 1021.83 1022.09 1022.33 1022.54 1022.73 1022.91 1023.08 1023.24 1023.40 1023.56 1023.71 1023.85 1023.97 1024.06 1024.12 1024.15
1018.29 1018.38 1018.53 1018.73 1018.97 1019.23 1019.50 1019.76 1020.00 1020.20 1020.37 1020.50 1020.59 1020.64 1020.64 1020.61 1020.56 1020.49 1020.43 1020.38 1020.37 1020.40 1020.48 1020.60 1020.77 1020.97 1021.20 1021.43 1021.66 1021.88 1022.09 1022.29 1022.49 1022.69 1022.90 1023.12 1023.33 1023.55 1023.75 1023.92 1024.05 1024.14 1024.20
1018.18 1018.23 1018.35 1018.53 1018.76 1019.01 1019.27 1019.53 1019.75 1019.95 1020.11 1020.23 1020.32 1020.38 1020.41 1020.41 1020.40 1020.37 1020.34 1020.31 1020.31 1020.33 1020.40 1020.50 1020.63 1020.80 1020.99 1021.19 1021.40 1021.60 1021.81 1022.02 1022.24 1022.48 1022.73 1023.00 1023.28 1023.55 1023.81 1024.03 1024.21 1024.34 1024.42
1018.02 1018.05 1018.14 1018.30 1018.52 1018.76 1019.01 1019.25 1019.47 1019.65 1019.80 1019.92 1020.01 1020.08 1020.14 1020.18 1020.21 1020.23 1020.25 1020.27 1020.30 1020.35 1020.42 1020.52 1020.65 1020.80 1020.98 1021.16 1021.36 1021.57 1021.78 1022.00 1022.24 1022.51 1022.80 1023.11 1023.43 1023.75 1024.06 1024.32 1024.54 1024.71 1024.82
1017.79 1017.80 1017.89 1018.04 1018.24 1018.48 1018.72 1018.95 1019.15 1019.32 1019.46 1019.57 1019.67 1019.76 1019.85 1019.93 1020.02 1020.10 1020.17 1020.25 1020.33 1020.43 1020.54 1020.67 1020.82 1020.99 1021.18 1021.38 1021.59 1021.80 1022.03 1022.27 1022.53 1022.81 1023.12 1023.45 1023.80 1024.15 1024.49 1024.78 1025.03 1025.22 1025.35
1017.45 1017.48 1017.57 1017.73 1017.93 1018.17 1018.40 1018.62 1018.81 1018.97 1019.10 1019.22 1019.32 1019.43 1019.55 1019.68 1019.81 1019.95 1020.10 1020.24 1020.40 1020.56 1020.73 1020.92 1021.12 1021.35 1021.58 1021.82 1022.07 1022.31 1022.56 1022.81 1023.08 1023.37 1023.69 1024.02 1024.37 1024.73 1025.07 1025.37 1025.63 1025.83 1025.98
1017.04 1017.09 1017.20 1017.37 1017.59 1017.82 1018.06 1018.27 1018.46 1018.61 1018.74 1018.85 1018.97 1019.09 1019.24 1019.41 1019.59 1019.79 1020.00 1020.22 1020.45 1020.69 1020.94 1021.21 1021.50 1021.80 1022.11 1022.42 1022.72 1023.01 1023.30 1023.57 1023.85 1024.14 1024.44 1024.76 1025.09 1025.42 1025.75 1026.04 1026.29 1026.49 1026.63
1016.56 1016.65 1016.79 1016.98 1017.21 1017.45 1017.69 1017.90 1018.08 1018.22 1018.35 1018.46 1018.59 1018.73 1018.91 1019.11 1019.34 1019.59 1019.86 1020.15 1020.46 1020.78 1021.12 1021.49 1021.87 1022.27 1022.67 1023.07 1023.45 1023.81 1024.14 1024.44 1024.73 1025.02 1025.30 1025.58 1025.88 1026.17 1026.46 1026.72 1026.95 1027.13 1027.25
1016.07 1016.19 1016.36 1016.57 1016.81 1017.06 1017.29 1017.49 1017.66 1017.80 1017.92 1018.04 1018.17 1018.33 1018.53 1018.76 1019.03 1019.33 1019.65 1020.00 1020.37 1020.77 1021.20 1021.65 1022.14 1022.64 1023.15 1023.65 1024.12 1024.56 1024.94 1025.29 1025.60 1025.87 1026.13 1026.38 1026.63 1026.88 1027.12 1027.34 1027.53 1027.69 1027.79
1015.61 1015.76 1015.95 1016.18 1016.41 1016.65 1016.86 1017.05 1017.20 1017.32 1017.44 1017.56 1017.70 1017.87 1018.09 1018.35 1018.64 1018.97 1019.33 1019.73 1020.15 1020.61 1021.12 1021.66 1022.23 1022.84 1023.45 1024.05 1024.61 1025.13 1025.59 1025.98 1026.31 1026.59 1026.84 1027.06 1027.27 1027.47 1027.66 1027.85 1028.01 1028.13 1028.22
1015.23 1015.39 1015.59 1015.81 1016.04 1016.24 1016.43 1016.58 1016.70 1016.80 1016.90 1017.01 1017.16 1017.35 1017.58 1017.86 1018.18 1018.53 1018.92 1019.34 1019.80 1020.31 1020.86 1021.46 1022.12 1022.80 1023.50 1024.19 1024.85 1025.45 1025.97 1026.42 1026.79 1027.08 1027.32 1027.53 1027.71 1027.88 1028.04 1028.19 1028.33 1028.44 1028.52
1014.94 1015.11 1015.30 1015.50 1015.69 1015.86 1016.00 1016.10 1016.18 1016.25 1016.33 1016.43 1016.58 1016.78 1017.03 1017.32 1017.66 1018.03 1018.43 1018.86 1019.34 1019.87 1020.45 1021.09 1021.80 1022.54 1023.31 1024.07 1024.81 1025.48 1026.07 1026.57 1026.97 1027.29 1027.55 1027.75 1027.92 1028.08 1028.23 1028.37 1028.50 1028.61 1028.69
1014.75 1014.92 1015.10 1015.27 1015.41 1015.53 1015.60 1015.65 1015.68 1015.71 1015.77 1015.87 1016.01 1016.22 1016.48 1016.79 1017.14 1017.52 1017.92 1018.36 1018.84 1019.37 1019.96 1020.61 1021.34 1022.12 1022.92 1023.74 1024.52 1025.25 1025.89 1026.44 1026.88 1027.23 1027.51 1027.72 1027.90 1028.06 1028.22 1028.37 1028.51 1028.64 1028.74
1014.65 1014.81 1014.97 1015.11 1015.21 1015.27 1015.29 1015.29 1015.27 1015.26 1015.29 1015.38 1015.53 1015.74 1016.02 1016.34 1016.69 1017.08 1017.48 1017.91 1018.38 1018.90 1019.48 1020.12 1020.84 1021.63 1022.45 1023.28 1024.09 1024.84 1025.52 1026.09 1026.57 1026.95 1027.25 1027.49 1027.69 1027.87 1028.04 1028.22 1028.39 1028.54 1028.68
1014.61 1014.78 1014.93 1015.04 1015.11 1015.13 1015.10 1015.05 1014.99 1014.96 1014.98 1015.05 1015.21 1015.43 1015.71 1016.04 1016.41 1016.79 1017.20 1017.61 1018.06 1018.56 1019.11 1019.73 1020.43 1021.19 1021.99 1022.81 1023.61 1024.37 1025.05 1025.64 1026.13 1026.53 1026.85 1027.11 1027.34 1027.55 1027.75 1027.96 1028.16 1028.36 1028.53
1014.61 1014.79 1014.95 1015.05 1015.11 1015.10 1015.06 1014.98 1014.91 1014.86 1014.87 1014.95 1015.11 1015.35 1015.65 1015.99 1016.36 1016.74 1017.13 1017.54 1017.97 1018.43 1018.95 1019.53 1020.18 1020.90 1021.66 1022.44 1023.21 1023.94 1024.60 1025.18 1025.66 1026.06 1026.39 1026.67 1026.92 1027.15 1027.38 1027.62 1027.86 1028.08 1028.30
1014.61 1014.82 1015.00 1015.13 1015.19 1015.20 1015.15 1015.08 1015.02 1014.98 1015.01 1015.10 1015.27 1015.52 1015.83 1016.18 1016.55 1016.93 1017.32 1017.70 1018.11 1018.54 1019.02 1019.56 1020.16 1020.82 1021.52 1022.24 1022.95 1023.63 1024.24 1024.79 1025.24 1025.63 1025.95 1026.23 1026.49 1026.74 1026.99 1027.24 1027.50 1027.76 1027.98
1014.61 1014.86 1015.07 1015.23 1015.33 1015.37 1015.36 1015.33 1015.29 1015.29 1015.34 1015.46 1015.65 1015.91 1016.23 1016.58 1016.96 1017.33 1017.70 1018.08 1018.46 1018.86 1019.30 1019.79 1020.33 1020.93 1021.56 1022.21 1022.85 1023.45 1024.01 1024.50 1024.92 1025.27 1025.58 1025.85 1026.10 1026.35 1026.60 1026.87 1027.13 1027.38 1027.61
Thickness
5750 5749 5748 5747 5748 5747 5745 5744 5744 5742 5742 5742 5742 5741 5740 5740 5740 5740 5735 5730 5728 5726 5724 5723 5721 5720 5718 5717 5716 5715 5713 5712 5710 5709 5708 5707 5706 5705 5703 5702 5701 5700 5700
5749 5748 5747 5745 5747 5746 5746 5744 5744 5742 5743 5742 5742 5741 5740 5740 5738 5737 5737 5732 5728 5726 5724 5722 5721 5719 5718 5717 5715 5714 5712 5711 5710 5709 5707 5706 5705 5704 5703 5702 5701 5699 5698
5747 5746 5747 5746 5746 5745 5743 5743 5743 5743 5742 5742 5742 5741 5740 5739 5738 5737 5737 5735 5731 5727 5725 5723 5721 5720 5718 5717 5715 5714 5712 5711 5709 5708 5707 5705 5704 5703 5702 5701 5700 5699 5698
5746 5746 5747 5747 5745 5745 5744 5744 5744 5744 5743 5743 5742 5741 5741 5739 5738 5737 5737 5735 5734 5733 5727 5724 5722 5720 5719 5717 5716 5714 5712 5711 5709 5708 5707 5705 5704 5703 5702 5701 5700 5698 5697
5746 5746 5747 5746 5745 5745 5745 5746 5745 5744 5742 5742 5743 5741 5742 5740 5739 5739 5738 5737 5735 5733 5732 5726 5723 5721 5719 5718 5716 5715 5713 5712 5710 5708 5707 5705 5704 5703 5702 5701 5699 5698 5697
5746 5746 5747 5746 5746 5746 5745 5744 5743 5742 5742 5742 5744 5743 5742 5742 5740 5740 5740 5739 5736 5735 5733 5731 5727 5724 5721 5719 5717 5716 5714 5713 5711 5709 5708 5706 5705 5703 5702 5700 5699 5698 5696
5745 5745 5748 5746 5746 5746 5745 5745 5743 5741 5741 5742 5740 5738 5740 5743 5742 5741 5741 5740 5739 5736 5734 5731 5730 5728 5725 5721 5719 5717 5715 5714 5712 5710 5708 5706 5705 5703 5702 5700 5698 5697 5695
5745 5746 5745 5747 5747 5745 5744 5743 5742 5742 5743 5742 5739 5734 5732 5735 5738 5743 5741 5739 5739 5737 5735 5733 5730 5728 5727 5725 5722 5719 5716 5714 5712 5710 5708 5707 5705 5703 5701 5699 5697 5696 5694
5744 5744 5745 5747 5747 5747 5745 5743 5743 5741 5740 5742 5743 5738 5732 5730 5735 5739 5740 5739 5738 5736 5735 5733 5731 5729 5727 5725 5723 5719 5716 5714 5712 5710 5708 5706 5704 5702 5700 5698 5696 5694 5692
5744 5745 5745 5746 5746 5747 5746 5745 5746 5744 5740 5739 5741 5741 5740 5740 5734 5732 5735 5738 5737 5735 5734 5733 5732 5728 5726 5725 5721 5719 5716 5714 5711 5709 5707 5705 5702 5700 5698 5696 5694 5691 5689
5744 5745 5745 5746 5746 5746 5746 5745 5745 5743 5743 5741 5740 5740 5739 5738 5738 5733 5729 5732 5733 5734 5733 5731 5730 5728 5726 5723 5721 5718 5715 5712 5709 5707 5705 5702 5700 5697 5695 5692 5690 5688 5685
5744 5745 5746 5745 5746 5746 5746 5745 5744 5743 5742 5742 5741 5741 5739 5737 5735 5734 5730 5729 5729 5730 5730 5728 5728 5726 5724 5721 5718 5715 5712 5709 5706 5704 5701 5698 5696 5693 5691 5688 5685 5683 5680
5745 5745 5747 5745 5746 5745 5745 5745 5743 5744 5743 5740 5739 5740 5741 5742 5741 5738 5732 5730 5727 5727 5725 5724 5723 5722 5720 5717 5714 5710 5707 5705 5702 5699 5696 5693 5690 5687 5684 5682 5679 5676 5674
5747 5747 5746 5745 5745 5745 5746 5745 5745 5743 5742 5740 5740 5739 5739 5741 5741 5738 5734 5729 5723 5722 5721 5719 5719 5717 5715 5712 5709 5705 5702 5699 5696 5693 5690 5687 5683 5680 5677 5674 5671 5668 5665
5746 5746 5745 5745 5745 5744 5744 5743 5743 5742 5741 5740 5740 5738 5737 5739 5738 5738 5736 5732 5724 5716 5714 5714 5713 5711 5709 5706 5702 5699 5696 5692 5689 5686 5683 5679 5675 5672 5669 5666 5662 5659 5656
5745 5745 5745 5745 5744 5744 5742 5741 5741 5741 5739 5738 5737 5736 5734 5736 5736 5735 5734 5732 5728 5721 5713 5712 5708 5706 5702 5700 5694 5691 5688 5684 5680 5677 5674 5670 5666 5663 5660 5656 5653 5649 5646
5743 5744 5744 5743 5743 5742 5741 5739 5739 5738 5737 5736 5735 5733 5731 5730 5730 5730 5729 5727 5724 5720 5710 5705 5702 5698 5694 5691 5686 5683 5680 5676 5671 5668 5665 5661 5657 5653 5650 5646 5643 5639 5635
5742 5742 5742 5742 5741 5740 5739 5738 5737 5737 5734 5733 5732 5730 5728 5727 5725 5724 5723 5722 5718 5715 5708 5699 5693 5689 5685 5682 5678 5675 5672 5669 5664 5658 5655 5652 5647 5643 5640 5636 5632 5629 5625
5741 5741 5740 5739 5739 5738 5737 5736 5735 5733 5732 5730 5729 5727 5725 5723 5720 5719 5717 5715 5713 5710 5705 5697 5689 5684 5678 5674 5670 5666 5662 5658 5655 5649 5645 5641 5637 5633 5629 5626 5622 5618 5615
5739 5738 5738 5737 5736 5735 5734 5732 5731 5729 5727 5726 5725 5723 5722 5720 5717 5715 5712 5708 5706 5702 5697 5692 5685 5678 5671 5666 5662 5658 5652 5648 5645 5641 5636 5631 5627 5623 5619 5616 5612 5608 5604
5737 5736 5734 5733 5732 5731 5730 5728 5726 5724 5722 5720 5719 5718 5716 5714 5711 5709 5707 5703 5699 5695 5690 5685 5679 5672 5665 5660 5656 5652 5646 5640 5635 5632 5628 5623 5619 5615 5611 5606 5602 5597 5593
5732 5731 5729 5728 5727 5725 5722 5720 5719 5719 5717 5715 5712 5711 5709 5706 5703 5699 5696 5694 5691 5688 5684 5678 5673 5667 5660 5656 5651 5646 5640 5635 5629 5624 5621 5616 5612 5608 5603 5599 5592 5588 5583
5727 5725 5723 5722 5720 5717 5714 5712 5711 5711 5710 5709 5706 5704 5703 5699 5696 5692 5687 5683 5680 5677 5675 5672 5667 5662 5656 5650 5645 5639 5634 5630 5624 5617 5612 5608 5603 5599 5594 5588 5583 5578 5573
5722 5720 5718 5716 5714 5710 5707 5705 5704 5704 5702 5700 5698 5696 5694 5690 5687 5684 5680 5675 5671 5667 5664 5661 5659 5655 5650 5643 5638 5633 5627 5619 5613 5608 5605 5601 5596 5591 5586 5580 5574 5568 5564
5717 5715 5712 5710 5707 5703 5699 5698 5697 5696 5694 5691 5689 5686 5684 5680 5676 5673 5671 5665 5661 5655 5651 5649 5646 5642 5637 5633 5628 5624 5618 5613 5607 5601 5596 5594 5589 5583 5578 5573 5567 5561 5556
5711 5709 5705 5703 5700 5696 5692 5690 5689 5690 5686 5683 5680 5676 5672 5670 5666 5663 5662 5658 5653 5647 5643 5638 5633 5629 5625 5621 5617 5615 5611 5608 5603 5596 5589 5585 5581 5576 5571 5566 5561 5555 5550